SCP
0 0 0 0 0 0 0 0 0 0 0 0 0 0 0 0 0 0 0 0 0 0 0 0 0 0 0 0 0 0 0 0 0 0 0 0 0 0 0 0 0 0 0
0 0 0 0 0 0 0 0 0 0 0 0 0 0 0 0 0 0 0 0 0 0 0 0 0 0 0 0 0 0 0 0 0 0 0 0 0 0 0 0 0 0 0
0 0 0 0 0 0 0 0 0 0 0 0 0 0 0 0 0 0 0 0 0 0 0 0 0 0 0 0 0 0 0 0 0 0 0 0 0 0 0 0 0 0 0
0 0 0 0 0 0 0 0 0 0 0 0 0 0 0 0 0 0 0 0 0 0 0 0 0 0 0 0 0 0 0 0 0 0 0 0 0 0 0 0 0 0 0
0 0 0 0 0 0 0 0 0 0 0 0 0 0 0 0 0 0 0 0 0 0 0 0 0 0 0 0 0 0 0 0 0 0 0 0 0 0 0 0 0 0 0
0 0 0 0 0 0 0 0 0 0 0 0 0 0 0 0 0 0 0 0 0 0 0 0 0 0 0 0 0 0 0 0 0 0 0 0 0 0 0 0 0 0 0
0 0 0 0 0 0 0 0 0 0 0 0 0 0 0 0 0 0 0 0 0 0 0 0 0 0 0 0 0 0 0 0 0 0 0 0 0 0 0 0 0 0 0
0 0 0 0 0 0 0 0 0 0 0 0 0 0 0 0 0 0 0 0 0 0 0 0 0 0 0 0 0 0 0 0 0 0 0 0 0 0 0 0 0 0 0
0 0 0 0 0 0 0 0 0 0 0 0 0 0 0 0 0 0 0 0 0 0 0 0 0 0 0 0 0 0 0 0 0 0 0 0 0 0 0 0 0 0 0
0 0 0 0 0 0 0 0 0 0 0 0 0 0 0 0 0 0 0 0 0 0 0 0 0 0 0 0 0 0 0 0 0 0 0 0 0 0 0 0 0 0 0
0 0 0 0 0 0 0 0 0 0 0 0 0 0 0 0 0 0 0 0 0 0 0 0 0 0 0 0 0 0 0 0 0 0 0 0 0 0 0 0 0 0 0
0 0 0 0 0 0 0 0 0 0 0 0 0 0 0 0 0 0 0 0 0 0 0 0 0 0 0 0 0 0 0 0 0 0 0 0 0 0 0 0 0 0 0
0 0 0 0 0 0 0 0 0 0 0 0 0 0 0 0 0 0 0 0 0 0 0 0 0 0 0 0 0 0 0 0 0 0 0 0 0 0 0 0 0 0 0
0 0 0 0 0 0 0 0 0 0 0 0 0 0 0 0 0 0 0 0 0 0 0 0 0 0 0 0 0 0 0 0 0 0 0 0 0 0 0 0 0 0 0
0 0 0 0 0 0 0 0 0 0 0 0 0 0 0 0 0 0 0 0 0 0 0 0 0 0 0 0 0 0 0 0 0 0 0 0 0 0 0 0 0 0 0
0 0 0 0 0 0 0 0 0 0 0 0 0 0 0 0 0 0 0 0 0 0 0 0 0 0 0 0 0 0 0 0 0 0 0 0 0 0 0 0 0 0 0
0 0 0 0 0 0 0 0 0 0 0 0 0 0 0 0 0 0 0 0 0 0 0 0 0 0 0 0 0 0 0 0 0 0 0 0 0 0 0 0 0 0 0
0 0 0 0 0 0 0 0 0 0 0 0 0 0 0 0 0 0 0 0 0 0 0 0 0 0 0 0 0 0 0 0 0 0 0 0 0 0 0 0 0 0 0
0 0 0 0 0 0 0 0 0 0 0 0 0 0 0 0 0 0 0 0 0 0 0 0 0 0 0 0 0 0 0 0 0 0 0 0 0 0 0 0 0 0 0
0 0 0 0 0 0 0 0 0 0 0 0 0 0 0 0 0 0 0 0 0 0 0 0 0 0 0 0 0 0 0 0 0 0 0 0 0 0 0 0 0 0 0
0 0 0 0 0 0 0 0 0 0 0 0 0 0 0 0 0 0 0 0 0 0 0 0 0 0 0 0 0 0 0 0 0 0 0 0 0 0 0 0 0 0 0
0 0 0 0 0 0 0 0 0 0 0 0 0 0 0 0 0 0 0 0 0 0 0 0 0 0 0 0 0 0 0 0 0 0 0 0 0 0 0 0 0 0 0
0 0 0 0 0 0 0 0 0 0 0 0 0 0 0 0 0 0 0 0 0 0 0 0 0 0 0 0 0 0 0 0 0 0 0 0 0 0 0 0 0 0 0
0 0 0 0 0 0 0 0 0 0 0 0 0 0 0 0 0 0 0 0 0 0 0 0 0 0 0 0 0 0 0 0 0 0 0 0 0 0 0 0 0 0 0
0 0 0 0 0 0 0 0 0 0 0 0 0 0 0 0 0 0 0 0 0 0 0 0 0 0 0 0 0 0 0 0 0 0 0 0 0 0 0 0 0 0 0
0 0 0 0 0 0 0 0 0 0 0 0 0 0 0 0 0 0 0 0 0 0 0 0 0 0 -0 -0 0 0 0 0 0 0 0 0 0 0 0 0 0 0 0
Wind_Speed
4 3 3 3 4 3 3 3 4 4 4 4 4 4 3 3 3 3 1 2 1 3 3 2 3 4 4 4 4 6 6 6 5 5 6 8 8 8 8 9 10 10 10
3 4 4 3 4 4 4 4 4 4 3 3 4 3 4 3 3 3 2 2 2 1 2 3 4 4 4 4 5 6 7 7 6 6 6 7 7 7 8 9 9 9 9
4 4 4 4 4 4 4 4 4 4 3 3 3 3 3 3 2 3 2 2 2 4 2 3 3 4 4 5 6 6 7 7 7 7 7 6 6 6 7 8 9 9 9
5 4 4 4 4 4 3 3 4 3 3 3 2 2 2 2 3 3 3 2 2 2 4 3 3 3 4 5 6 7 7 8 7 7 7 6 6 6 6 8 9 9 9
5 4 4 4 4 3 3 3 2 3 3 2 2 2 2 1 2 3 3 2 2 2 2 4 4 3 3 4 5 6 7 8 8 8 7 7 6 6 6 8 9 9 8
4 4 3 4 4 3 3 3 3 3 3 3 2 1 1 1 1 1 2 2 1 2 2 2 3 4 4 4 4 5 7 8 8 8 8 8 7 7 7 7 8 9 9
4 4 4 4 4 3 4 4 3 2 2 2 2 1 1 1 0 1 1 1 1 1 1 2 2 2 3 5 4 4 6 7 8 9 8 8 8 7 7 7 8 8 8
4 4 4 4 3 3 3 3 2 3 2 2 2 2 1 2 1 1 1 1 1 2 1 1 2 2 2 3 4 4 4 5 6 8 9 9 8 8 7 7 8 8 8
3 4 4 4 4 3 2 3 3 3 2 2 2 2 2 0 1 2 1 1 1 1 1 1 1 2 2 2 3 4 4 3 5 7 9 9 9 8 8 8 7 8 8
3 3 4 4 3 3 3 3 2 2 3 2 1 2 2 2 2 1 2 2 2 1 1 1 1 1 1 2 2 3 4 3 4 6 8 9 9 9 9 9 8 8 8
2 3 4 3 3 2 3 3 2 2 2 3 2 2 1 1 3 2 1 1 1 1 1 1 0 0 1 1 2 3 4 4 4 4 6 8 9 9 9 9 9 8 8
2 2 3 3 3 3 3 3 2 2 2 2 2 2 2 2 2 2 2 2 1 1 1 1 0 0 0 1 1 3 4 4 4 4 4 5 7 8 9 9 9 9 9
2 2 3 3 3 3 3 3 2 2 2 2 2 2 2 2 2 2 2 1 1 1 1 2 1 1 1 1 2 3 4 4 3 4 4 5 5 6 8 8 8 8 8
2 3 3 3 3 3 3 2 2 2 2 2 2 2 2 2 2 2 2 2 2 2 2 2 2 1 1 1 2 2 4 5 3 4 5 5 5 5 6 7 7 7 7
2 3 3 2 2 3 2 2 2 2 2 2 2 2 2 1 2 2 2 3 3 2 2 2 1 1 1 0 1 2 2 5 4 4 5 5 5 5 5 5 6 6 5
2 3 3 3 2 2 2 2 2 2 2 2 2 3 2 2 1 2 2 3 3 3 1 1 1 1 1 1 2 1 1 5 5 5 5 6 6 6 5 5 5 5 5
3 3 3 3 2 2 2 1 2 2 2 2 2 2 2 2 2 2 2 2 3 3 2 1 1 1 2 2 2 1 2 3 4 5 4 4 5 5 6 5 6 6 5
4 4 3 3 2 2 2 2 2 2 2 2 2 2 2 2 2 2 2 3 2 3 3 2 2 1 1 2 1 1 1 1 2 5 5 4 4 4 5 5 5 6 6
5 4 4 3 3 3 2 2 3 2 2 2 2 2 2 2 3 2 3 3 2 2 2 3 2 1 1 1 2 2 2 1 1 4 5 5 5 4 4 4 4 5 5
5 5 4 4 4 4 3 3 3 3 2 2 2 2 2 2 3 3 3 3 3 2 3 3 2 2 1 1 2 2 2 2 1 2 2 3 4 4 4 4 5 5 5
6 5 5 4 4 4 3 4 4 3 3 2 2 2 1 1 3 3 3 2 3 3 3 3 2 2 2 2 2 2 2 2 2 1 1 2 2 2 3 5 5 4 4
6 6 6 5 4 3 1 3 6 4 3 3 2 2 2 2 2 3 1 2 3 3 3 3 2 2 2 1 1 2 2 2 2 2 1 1 1 1 1 1 3 3 3
7 7 7 6 6 4 3 4 6 6 4 3 3 3 2 1 3 3 5 6 3 3 4 4 3 2 2 1 2 2 2 1 0 1 1 2 2 1 1 3 5 4 3
6 7 7 7 6 5 5 6 6 7 5 5 4 4 3 3 2 3 3 3 2 2 3 4 3 2 1 1 2 2 2 2 1 1 2 2 2 1 2 2 6 4 3
7 7 7 7 8 7 7 7 8 6 5 5 4 4 4 3 1 2 4 3 3 3 3 1 2 2 4 3 1 2 3 3 3 2 2 2 2 1 2 2 4 6 4
7 8 8 8 8 8 6 8 10 6 6 5 4 4 3 3 2 3 5 4 4 3 3 5 4 4 4 3 3 3 3 3 2 2 2 2 2 2 2 2 2 3 3
Wind_Direction
329 333 319 326 314 314 301 299 292 302 293 295 290 287 282 272 276 272 192 119 288 282 262 212 184 183 177 172 165 158 152 143 130 125 137 134 130 132 135 138 136 136 139
327 327 322 325 319 313 312 300 294 294 285 286 288 288 281 271 261 271 263 173 177 244 254 221 195 188 183 178 176 166 160 153 144 132 130 131 130 136 140 142 145 146 148
327 329 326 322 319 313 303 298 299 291 286 279 275 278 271 269 256 255 249 255 202 178 190 217 210 196 190 183 184 176 167 159 154 149 144 143 140 143 148 151 153 153 155
340 335 326 326 323 314 306 302 296 292 287 286 284 278 266 258 259 260 249 233 234 215 170 171 193 196 187 182 185 183 176 167 163 162 160 159 154 152 161 161 158 158 160
338 330 332 328 326 317 309 301 299 298 295 291 276 268 272 262 267 249 238 230 216 220 195 154 167 165 175 184 189 190 185 178 171 169 169 167 162 159 161 162 163 162 163
343 336 326 332 329 319 314 303 299 290 294 284 280 286 288 252 240 268 258 220 213 208 207 179 173 160 155 169 188 198 194 185 180 176 173 171 170 170 166 167 169 168 165
343 334 325 337 328 330 322 312 297 275 275 276 260 239 199 195 153 160 238 241 182 170 186 187 185 180 162 162 173 197 196 195 187 181 179 178 177 174 175 175 172 172 173
342 329 329 326 333 326 319 313 303 289 278 274 275 262 222 177 157 135 163 199 185 155 173 174 174 182 190 170 149 175 186 195 186 182 180 178 178 179 181 182 184 184 185
336 333 332 329 328 319 327 309 293 277 279 270 292 292 285 279 123 147 128 139 125 134 154 155 187 190 189 168 160 160 166 180 189 186 185 181 179 182 185 187 186 187 191
326 332 329 327 324 324 321 310 311 288 275 262 242 281 304 329 278 175 152 118 114 133 127 130 165 209 208 163 141 132 153 165 180 185 187 185 186 188 190 190 190 191 195
320 331 325 325 324 321 322 320 312 290 274 276 269 255 254 252 263 258 194 166 152 140 123 118 140 200 221 172 170 145 157 171 173 176 181 185 188 189 192 193 194 195 196
310 337 327 326 326 325 319 311 296 282 283 278 274 266 259 259 255 241 223 198 189 147 153 137 150 137 150 145 127 116 154 168 178 177 173 181 187 190 192 193 196 198 199
308 334 330 332 336 327 319 311 293 293 271 266 270 280 281 276 277 270 248 218 213 187 175 176 153 157 171 156 122 121 148 150 172 181 174 175 179 187 193 194 196 196 198
314 326 325 339 337 328 311 306 292 287 276 257 260 271 271 272 268 259 256 247 231 204 188 170 159 170 172 180 105 211 161 151 167 182 181 178 181 183 193 196 197 201 205
300 308 316 327 335 330 314 301 294 287 287 288 272 253 255 259 255 251 244 251 263 250 199 159 171 165 196 203 160 223 182 141 166 183 185 182 185 188 191 189 190 196 203
284 285 299 317 325 327 316 305 298 307 279 270 275 271 259 253 246 242 242 246 255 264 263 149 163 171 185 214 167 234 154 154 176 178 184 182 187 190 189 188 187 188 190
266 270 282 300 314 316 312 290 286 292 285 276 247 247 247 260 245 229 235 242 245 246 240 216 175 164 191 205 166 179 164 181 159 160 178 186 186 191 190 189 189 190 191
259 264 274 286 294 294 297 302 299 286 280 285 276 260 245 222 241 249 245 239 235 240 237 226 194 174 203 203 186 181 171 169 169 148 164 172 173 174 177 184 188 192 196
249 247 253 265 275 278 279 275 278 276 272 279 285 283 275 250 234 234 240 241 233 226 227 230 214 162 207 195 187 184 163 146 168 152 161 165 165 170 180 187 190 192 196
247 249 253 257 264 269 274 272 268 270 270 278 284 284 283 274 262 250 235 233 223 219 221 224 217 202 204 209 209 193 173 158 152 139 129 145 152 169 181 184 186 187 192
249 249 252 255 261 267 282 290 276 269 271 267 264 272 290 336 355 319 289 251 219 217 217 219 214 212 207 201 205 208 189 174 145 146 151 154 160 175 176 181 181 174 183
242 245 246 250 251 253 265 279 282 270 261 254 254 253 222 193 200 215 275 307 295 244 225 221 224 221 224 202 186 198 197 202 172 153 180 146 151 161 160 143 107 136 163
237 243 243 245 247 237 202 227 251 268 263 259 257 249 241 217 226 213 189 196 210 257 279 269 239 234 225 202 199 207 201 217 174 136 196 178 170 169 136 97 110 119 128
234 239 244 247 247 237 204 222 235 248 251 248 248 250 243 231 223 259 222 199 191 186 215 235 246 261 272 195 206 230 210 186 158 162 212 208 183 176 144 124 120 120 114
236 235 238 241 244 233 204 213 227 241 241 242 242 246 254 238 138 257 235 211 202 184 142 110 22 42 59 48 315 208 205 207 198 177 195 220 186 183 183 168 139 143 137
239 239 238 239 242 246 202 205 224 237 237 234 229 224 215 253 180 219 234 222 221 214 205 182 186 190 192 167 213 236 227 227 217 182 161 210 204 205 202 176 164 167 164